NSS-5

Last updated on Thu Dec 09 2021 00:02:35 GMT+0000 (Coordinated Universal Time)

1 24957U 97053A 21342.26955791 -.00000141 00000+0 00000+0 0 9992 2 24957 6.9911 60.3180 0003640 208.2106 272.3418 0.99105135 88584
UTC large
Height (km)
Speed (km/s)
/
Latitude / Longitude
Inclination (degrees)
Orbital Period (minutes)
Azimuth
Elevation
Range (km)
Doppler Factor

Next 0 passes for location: London (51.5072 / 0.1276)

Sorry there are no passes over London.